Location: Unspecified
(42.3650°N, 71.1030°W)
Time: 16:16:52
(UTC+00:00)

S-56A Canister/Altair - Pass Details

Date: 03 July 2024
Orbit: 638 x 2487 km, 38.9° (Epoch: 20 July)

Event Time Altitude Azimuth Distance (km) Brightness Sun altitude
Rises 01:46:07 0° 273° (W) 3,780 11.8 -12.3°
Reaches altitude 10° 01:48:24 10° 270° (W) 3,018 11.2 -12.6°
Maximum altitude 01:55:55 66° 190° (S) 1,619 9.0 -13.5°
Enters shadow 02:06:56 11° 112° (ESE) 4,345 10.8 -14.8°
